User: anonymous   Login
Location: Brno
(49.2000°N, 16.6330°E)
Time: 15:35:24
(UTC+02:00)
Language:

Meteor 1-4 Rocket - Orbit

View from above orbital plane
View from above orbital plane
View from above satellite
View from above satellite

Ground track
Ground track

The orbit data is extracted from the following two-line orbital elements,

1 04394U 70037B   16182.85793030  .00000927  00000-0  33063-4 0  9997
2 04394  81.2432  67.0109 0040796 242.1355 117.5745 15.27020482511135
Epoch (UTC): 30 June 2016 20:35:25
Eccentricity: 0.0040796
inclination: 81.2432°
perigee height: 457 km
apogee height: 513 km
right ascension of ascending node: 67.0109°
argument of perigee: 242.1355°
revolutions per day: 15.27020482
mean anomaly at epoch: 117.5745°
orbit number at epoch: 51113

The dashed part of the orbit path shows where the satellite is in the earth's shadow,  

DLR